| time (UTC) | temp F | wind direction | speed MPH | gust MPH | rain 1hr in | rain 24hr in | rain mn in | humidity % | barometer mb |
| 20260831211535 | 87 | 147 | 5.0 | 9.0 | 0.00 | 0.00 | 0.00 | 68 | 1018.3 |
| 20260831210035 | 87 | 177 | 6.0 | 9.0 | 0.00 | 0.00 | 0.00 | 67 | 1018.3 |
| 20260831204534 | 87 | 144 | 4.0 | 8.0 | 0.00 | 0.00 | 0.00 | 68 | 1018.3 |
| 20260831203034 | 88 | 158 | 4.0 | 8.0 | 0.00 | 0.00 | 0.00 | 67 | 1018.3 |
| 20260831201532 | 88 | 157 | 4.0 | 8.0 | 0.00 | 0.00 | 0.00 | 67 | 1018.4 |
| 20260831200036 | 88 | 148 | 4.0 | 7.0 | 0.00 | 0.00 | 0.00 | 64 | 1018.4 |
| 20260831194558 | 89 | 156 | 5.0 | 9.0 | 0.00 | 0.00 | 0.00 | 65 | 1018.4 |
| 20260831193033 | 90 | 133 | 5.0 | 10.0 | 0.00 | 0.00 | 0.00 | 63 | 1018.7 |
| 20260831191530 | 90 | 141 | 4.0 | 10.0 | 0.00 | 0.00 | 0.00 | 63 | 1018.8 |
| 20260831190031 | 91 | 138 | 7.0 | 10.0 | 0.00 | 0.00 | 0.00 | 59 | 1019.2 |
| 20260831184529 | 91 | 152 | 6.0 | 9.0 | 0.00 | 0.00 | 0.00 | 62 | 1019.3 |
| 20260831183028 | 91 | 190 | 5.0 | 9.0 | 0.00 | 0.00 | 0.00 | 62 | 1019.5 |
| 20260831181529 | 90 | 156 | 4.0 | 8.0 | 0.00 | 0.00 | 0.00 | 64 | 1019.7 |
| 20260831180025 | 89 | 140 | 5.0 | 9.0 | 0.00 | 0.00 | 0.00 | 63 | 1019.7 |
| 20260831174528 | 90 | 132 | 5.0 | 8.0 | 0.00 | 0.00 | 0.00 | 64 | 1019.8 |
| 20260831173024 | 90 | 124 | 5.0 | 11.0 | 0.00 | 0.00 | 0.00 | 65 | 1019.8 |
| 20260831171521 | 89 | 134 | 7.0 | 9.0 | 0.00 | 0.00 | 0.00 | 66 | 1020.0 |
| 20260831170026 | 89 | 138 | 6.0 | 9.0 | 0.00 | 0.00 | 0.00 | 66 | 1020.2 |
| 20260831164520 | 89 | 151 | 4.0 | 9.0 | 0.00 | 0.00 | 0.00 | 68 | 1020.3 |
| 20260831163030 | 89 | 132 | 5.0 | 8.0 | 0.00 | 0.00 | 0.00 | 69 | 1020.4 |
| 20260831161514 | 88 | 132 | 4.0 | 9.0 | 0.00 | 0.00 | 0.00 | 71 | 1020.4 |
| 20260831160010 | 86 | 178 | 3.0 | 5.0 | 0.00 | 0.00 | 0.00 | 71 | 1020.4 |
| 20260831154511 | 85 | 47 | 0.0 | 3.0 | 0.00 | 0.00 | 0.00 | 71 | 1020.3 |
| 20260831153010 | 84 | 45 | 0.0 | 3.0 | 0.00 | 0.00 | 0.00 | 71 | 1020.3 |
| 20260831151503 | 84 | 327 | 1.0 | 5.0 | 0.00 | 0.00 | 0.00 | 72 | 1020.3 |
| 20260831150101 | 83 | 69 | 0.0 | 2.0 | 0.00 | 0.00 | 0.00 | 76 | 1020.3 |
| 20260831144558 | 83 | 11 | 1.0 | 5.0 | 0.00 | 0.00 | 0.00 | 78 | 1020.2 |
| 20260831143111 | 82 | 47 | 2.0 | 5.0 | 0.00 | 0.00 | 0.00 | 78 | 1019.9 |
| 20260831141612 | 82 | 36 | 0.0 | 7.0 | 0.00 | 0.00 | 0.00 | 81 | 1019.9 |
| 20260831140055 | 81 | 22 | 0.0 | 4.0 | 0.00 | 0.00 | 0.00 | 81 | 1019.8 |
| 20260831134552 | 80 | 60 | 0.0 | 2.0 | 0.00 | 0.00 | 0.00 | 85 | 1019.8 |
| 20260831133045 | 79 | 56 | 0.0 | 2.0 | 0.00 | 0.00 | 0.00 | 88 | 1019.8 |
| 20260831131543 | 78 | 42 | 0.0 | 2.0 | 0.00 | 0.00 | 0.00 | 89 | 1019.8 |
| 20260831130043 | 77 | 42 | 1.0 | 3.0 | 0.00 | 0.00 | 0.00 | 90 | 1019.8 |
| 20260831124541 | 77 | 37 | 1.0 | 3.0 | 0.00 | 0.00 | 0.00 | 90 | 1019.8 |
| 20260831123040 | 76 | 36 | 0.0 | 2.0 | 0.00 | 0.00 | 0.00 | 90 | 1019.7 |
| 20260831121539 | 76 | 36 | 1.0 | 2.0 | 0.00 | 0.00 | 0.00 | 90 | 1019.7 |
| 20260831120038 | 76 | 34 | 0.0 | 2.0 | 0.00 | 0.00 | 0.00 | 90 | 1019.7 |
| 20260831114541 | 75 | 34 | 0.0 | 1.0 | 0.00 | 0.00 | 0.00 | 90 | 1019.5 |
| 20260831113040 | 75 | 34 | 0.0 | 3.0 | 0.00 | 0.00 | 0.00 | 90 | 1019.6 |
| 20260831111537 | 75 | 34 | 1.0 | 2.0 | 0.00 | 0.00 | 0.00 | 90 | 1019.5 |
| 20260831110037 | 75 | 31 | 1.0 | 3.0 | 0.00 | 0.00 | 0.00 | 90 | 1019.5 |
| 20260831104535 | 76 | 31 | 0.0 | 2.0 | 0.00 | 0.00 | 0.00 | 90 | 1019.5 |
| 20260831103034 | 76 | 31 | 0.0 | 2.0 | 0.00 | 0.00 | 0.00 | 90 | 1019.5 |
| 20260831101533 | 76 | 30 | 0.0 | 2.0 | 0.00 | 0.00 | 0.00 | 90 | 1019.4 |
| 20260831100032 | 77 | 25 | 1.0 | 3.0 | 0.00 | 0.00 | 0.00 | 91 | 1019.3 |
| 20260831094531 | 77 | 353 | 0.0 | 5.0 | 0.00 | 0.00 | 0.00 | 90 | 1019.1 |
| 20260831093031 | 77 | 12 | 0.0 | 2.0 | 0.00 | 0.00 | 0.00 | 90 | 1018.8 |
| 20260831091530 | 77 | 19 | 0.0 | 2.0 | 0.00 | 0.00 | 0.00 | 90 | 1018.8 |
| 20260831090030 | 77 | 27 | 0.0 | 2.0 | 0.00 | 0.00 | 0.00 | 90 | 1018.7 |
| 20260831084529 | 77 | 13 | 0.0 | 1.0 | 0.00 | 0.00 | 0.00 | 90 | 1018.7 |
| 20260831083029 | 77 | 13 | 0.0 | 1.0 | 0.00 | 0.00 | 0.00 | 90 | 1018.7 |
| 20260831081528 | 77 | 13 | 0.0 | 1.0 | 0.00 | 0.00 | 0.00 | 90 | 1018.6 |
| 20260831080027 | 77 | 12 | 1.0 | 2.0 | 0.00 | 0.00 | 0.00 | 90 | 1018.7 |
| 20260831074528 | 77 | 13 | 0.0 | 1.0 | 0.00 | 0.00 | 0.00 | 90 | 1018.7 |
| 20260831073029 | 77 | 13 | 0.0 | 2.0 | 0.00 | 0.00 | 0.00 | 89 | 1018.8 |
| 20260831071524 | 77 | 12 | 0.0 | 0.0 | 0.00 | 0.00 | 0.00 | 89 | 1018.8 |
| 20260831070030 | 77 | 12 | 0.0 | 0.0 | 0.00 | 0.00 | 0.00 | 89 | 1018.9 |
| 20260831064523 | 77 | 13 | 0.0 | 0.0 | 0.00 | 0.00 | 0.00 | 89 | 1019.1 |
| 20260831063022 | 77 | 12 | 0.0 | 0.0 | 0.00 | 0.00 | 0.00 | 89 | 1019.3 |
| 20260831061521 | 77 | 13 | 0.0 | 0.0 | 0.00 | 0.00 | 0.00 | 89 | 1019.5 |
| 20260831060020 | 77 | 13 | 0.0 | 0.0 | 0.00 | 0.00 | 0.00 | 89 | 1019.7 |
| 20260831054524 | 77 | 13 | 0.0 | 0.0 | 0.00 | 0.00 | 0.00 | 88 | 1019.7 |
| 20260831053019 | 77 | 13 | 0.0 | 0.0 | 0.00 | 0.00 | 0.00 | 89 | 1019.8 |
| 20260831051525 | 77 | 13 | 0.0 | 0.0 | 0.00 | 0.00 | 0.00 | 88 | 1019.8 |
| 20260831050017 | 77 | 13 | 0.0 | 0.0 | 0.00 | 0.00 | 0.00 | 88 | 1020.1 |
| 20260831044519 | 77 | 13 | 0.0 | 0.0 | 0.00 | 0.00 | 0.00 | 88 | 1020.0 |
| 20260831043015 | 77 | 12 | 0.0 | 1.0 | 0.00 | 0.00 | 0.00 | 88 | 1020.0 |
| 20260831041522 | 77 | 9 | 0.0 | 2.0 | 0.00 | 0.00 | 0.00 | 88 | 1020.3 |
| 20260831040012 | 77 | 59 | 0.0 | 1.0 | 0.00 | 0.00 | 0.00 | 88 | 1020.3 |
| 20260831034512 | 78 | 59 | 0.0 | 1.0 | 0.00 | 0.00 | 0.00 | 88 | 1020.3 |
| 20260831033012 | 77 | 59 | 0.0 | 1.0 | 0.00 | 0.00 | 0.00 | 87 | 1020.3 |
| 20260831031511 | 77 | 59 | 0.0 | 1.0 | 0.00 | 0.00 | 0.00 | 87 | 1020.3 |
| 20260831030012 | 77 | 59 | 0.0 | 2.0 | 0.00 | 0.00 | 0.00 | 86 | 1020.3 |
| 20260831024510 | 78 | 59 | 0.0 | 2.0 | 0.00 | 0.00 | 0.00 | 86 | 1020.3 |
| 20260831023009 | 78 | 59 | 0.0 | 1.0 | 0.00 | 0.00 | 0.00 | 86 | 1020.3 |
| 20260831021509 | 78 | 59 | 0.0 | 3.0 | 0.00 | 0.00 | 0.00 | 86 | 1020.3 |
| 20260831020009 | 78 | 59 | 0.0 | 2.0 | 0.00 | 0.00 | 0.00 | 86 | 1020.3 |
| 20260831014508 | 78 | 59 | 0.0 | 3.0 | 0.00 | 0.00 | 0.00 | 86 | 1020.2 |
| 20260831013008 | 79 | 59 | 1.0 | 3.0 | 0.00 | 0.00 | 0.00 | 86 | 1020.2 |
| 20260831011513 | 79 | 11 | 1.0 | 2.0 | 0.00 | 0.00 | 0.00 | 86 | 1019.8 |
| 20260831010007 | 79 | 7 | 0.0 | 2.0 | 0.00 | 0.00 | 0.00 | 86 | 1019.8 |
| 20260831004507 | 79 | 7 | 0.0 | 0.0 | 0.00 | 0.00 | 0.00 | 86 | 1019.7 |
| 20260831003006 | 79 | 8 | 0.0 | 3.0 | 0.00 | 0.00 | 0.00 | 85 | 1019.5 |
| 20260831001505 | 79 | 8 | 0.0 | 2.0 | 0.00 | 0.00 | 0.00 | 85 | 1019.3 |
| 20260831000005 | 79 | 8 | 0.0 | 2.0 | 0.00 | 0.00 | 0.00 | 84 | 1019.3 |
| 20260830234504 | 79 | 7 | 0.0 | 1.0 | 0.00 | 0.00 | 0.00 | 84 | 1019.3 |
| 20260830233004 | 79 | 40 | 0.0 | 2.0 | 0.00 | 0.00 | 0.00 | 83 | 1019.5 |
| 20260830231505 | 80 | 47 | 1.0 | 3.0 | 0.00 | 0.00 | 0.00 | 83 | 1020.0 |
| 20260830230003 | 80 | 61 | 0.0 | 4.0 | 0.00 | 0.00 | 0.00 | 82 | 1020.3 |
| 20260830224502 | 81 | 51 | 1.0 | 6.0 | 0.00 | 0.00 | 0.00 | 82 | 1020.3 |
| 20260830223002 | 81 | 28 | 0.0 | 1.0 | 0.00 | 0.00 | 0.00 | 81 | 1020.2 |
| 20260830221501 | 82 | 341 | 0.0 | 4.0 | 0.00 | 0.00 | 0.00 | 81 | 1020.3 |
| 20260830220002 | 84 | 200 | 0.0 | 3.0 | 0.00 | 0.00 | 0.00 | 78 | 1020.3 |
| 20260830214600 | 84 | 146 | 1.0 | 3.0 | 0.00 | 0.00 | 0.00 | 77 | 1020.3 |
| 20260830213100 | 84 | 141 | 1.0 | 5.0 | 0.00 | 0.00 | 0.00 | 76 | 1020.4 |